sat.trackr.live / text

‹ back to catalog

STARLINK-34447

NORAD 64710 · 2025-142Q

PAYLOAD ACTIVE UNKNOWN

§ Identity

Operator
Country
US
Launch date
2025-06-28
Launch site
AFWTR
Launch vehicle
Mass (kg)
RCS (m²)

Purposes: comms

External: N2YO · Heavens-Above · Gunter

§ Orbital elements

Epoch: 2026-05-25T05:18:38.579040Z

Period
96.11 min
Inclination
70.0001°
Eccentricity
0.0003993
Mean motion
14.98342148 rev/d
Perigee alt
569.2 km
Apogee alt
574.8 km
Semi-major
6,950.2 km
B*
1.3936e-4
RAAN
121.4892°
Arg perigee
264.4113°
Mean anomaly
95.6591°
Rev number
5,111

§ Raw data

STARLINK-344471 64710U 25142Q   26145.22127985  .00001571  00000+0  13936-3 0  99942 64710  70.0001 121.4892 0003993 264.4113  95.6591 14.98342148 51117

JSON: /api/v1/satellites/64710 · /tle

For live sub-satellite position, see the globe view (requires WebGL).

§ Visibility from observer

Set your observer location to see the next 7 days of passes ≥ 10°. The values pass through the URL so the page stays shareable.

No JS? Fill the form by hand. The geolocation button needs JavaScript.